Simultaneous Nadir Overpasses (SNOs) Predictions

Prediction of SNOs between GOES-16 and AQUA Satellite Orbit:

Table of predicted SNOs for the next 14.0 days since TLE Epoch: 4/15/2023
Index Date Time (GOES-16) GOES-16 Lat,Lon AQUA Lat,Lon Distance(km) Time Diff (sec)
1 04/16/2023 18:38:43 0.03, -75.23 0.47, -73.31 219.10 80
2 04/17/2023 07:02:13 -0.03, -75.23 0.62, -78.35 354.50 80
3 04/19/2023 06:45:44 -0.03, -75.26 -0.10, -74.98 31.56 80
4 04/21/2023 06:31:54 -0.03, -75.29 -0.82, -71.61 418.36 80
5 04/21/2023 18:55:32 0.03, -75.30 -0.29, -76.68 158.24 80
6 04/23/2023 18:39:02 0.03, -75.33 0.49, -73.32 229.65 80
7 04/24/2023 07:02:31 -0.02, -75.34 0.63, -78.35 343.13 80
8 04/26/2023 06:45:59 -0.02, -75.38 -0.08, -74.97 45.83 80
9 04/28/2023 06:32:07 -0.02, -75.42 -0.84, -71.59 435.62 80
10 04/28/2023 18:55:44 0.01, -75.44 -0.28, -76.66 140.25 80
